Waukegan, IL

1:33 AM CDT on May 22, 2018 (GMT -0500)
Waukegan Regional

Weather History for KUGN - January, 2014

Change the Weather History Date:

Wednesday, January 15, 2014

  Actual Average Record
Temperature  
Mean Temperature 16 °F 23 °F  
Max Temperature 20 °F 30 °F 42 °F (2016)
Min Temperature 11 °F 15 °F -12 °F (2009)
Degree Days  
Heating Degree Days 49 42  
Month to date heating degree days 744 621  
Since 1 July heating degree days 3632 3170  
Cooling Degree Days 0 0  
Month to date cooling degree days 0 0  
Year to date cooling degree days 0 0  
Moisture  
Dew Point 9 °F    
Average Humidity 73    
Maximum Humidity 84    
Minimum Humidity 61    
Precipitation  
Precipitation T in 0.04 in 0.11 in (2018)
Month to date precipitation 1.03 0.64  
Year to date precipitation 1.03 0.64  
Sea Level Pressure  
Sea Level Pressure 29.98 in    
Wind  
Wind Speed 10 mph (West)    
Max Wind Speed 21 mph    
Max Gust Speed 28 mph    
Visibility 8 miles    
Events Snow    
T = Trace of Precipitation, MM = Missing Value Source: NWS Daily Summary

Daily Weather History Graph

Daily Weather History Graph

Search for Another Location

Airport or City:

Astronomy

Jan. 15, 2014 Rise Set
Actual Time 7:18 AM CST 4:44 PM CST
Civil Twilight 6:47 AM CST 5:15 PM CST
Nautical Twilight 6:12 AM CST 5:49 PM CST
Astronomical Twilight 5:38 AM CST 6:23 PM CST
Moon 4:42 PM CST (1/15) 6:33 AM CST (1/15)
Length of Visible Light 10h 28m
Length of Day
9h 25m
Full, 100% of the Moon is Illuminated
Jan 15
Full
Jan 15
Full
Jan 23
Last Quarter
Jan 30
New
Feb 6
First Quarter

Hourly Weather History & Observations

Time (CST) Temp. Windchill Dew Point Humidity Pressure Visibility Wind Dir Wind Speed Gust Speed Precip Events Conditions
12:00 AM 19.4 °F 8.6 °F 15.8 °F 86% 29.84 in 2.5 mi WNW 9.2 mph - 0.00 in Snow Light Snow
12:08 AM 19.4 °F 6.0 °F 15.8 °F 86% 29.84 in 1.2 mi WNW 13.8 mph 19.6 mph 0.00 in Snow Light Snow
12:22 AM 19.4 °F 7.9 °F 15.8 °F 86% 29.85 in 3.0 mi WNW 10.4 mph 23.0 mph 0.00 in Snow Light Snow
12:44 AM 19.4 °F 8.6 °F 15.8 °F 86% 29.86 in 1.8 mi WNW 9.2 mph 18.4 mph 0.00 in Snow Light Snow
12:52 AM 19.0 °F 7.5 °F 14.0 °F 81% 29.91 in 2.5 mi WNW 10.4 mph 19.6 mph 0.00 in Snow Light Snow
1:01 AM 19.4 °F 7.2 °F 12.2 °F 74% 29.87 in 4.0 mi WNW 11.5 mph 19.6 mph 0.00 in Snow Light Snow
1:49 AM 17.6 °F 7.3 °F 10.4 °F 73% 29.89 in 10.0 mi WNW 8.1 mph 16.1 mph 0.00 in   Overcast
1:52 AM 18.0 °F 5.4 °F 10.9 °F 74% 29.95 in 8.0 mi WNW 11.5 mph 18.4 mph 0.00 in Snow Light Snow
2:04 AM 17.6 °F 5.0 °F 10.4 °F 73% 29.90 in 7.0 mi NW 11.5 mph 24.2 mph 0.00 in Snow Light Snow
2:21 AM 17.6 °F 7.3 °F 12.2 °F 79% 29.91 in 2.5 mi West 8.1 mph 20.7 mph 0.00 in Snow Light Snow
2:34 AM 17.6 °F 5.0 °F 12.2 °F 79% 29.91 in 3.0 mi WNW 11.5 mph - 0.00 in Snow Light Snow
2:47 AM 17.6 °F 5.7 °F 12.2 °F 79% 29.92 in 4.0 mi WNW 10.4 mph 19.6 mph 0.00 in Snow Light Snow
2:52 AM 17.1 °F 3.6 °F 10.9 °F 77% 29.97 in 4.0 mi West 12.7 mph 18.4 mph 0.00 in Snow Light Snow
3:34 AM 15.8 °F 4.2 °F 8.6 °F 73% 29.93 in 9.0 mi WNW 9.2 mph 16.1 mph 0.00 in   Overcast
3:44 AM 15.8 °F 5.1 °F 8.6 °F 73% 29.94 in 10.0 mi WNW 8.1 mph 16.1 mph 0.00 in   Overcast
3:52 AM 14.0 °F 2.9 °F 9.0 °F 80% 30.00 in 10.0 mi West 8.1 mph - 0.00 in   Mostly Cloudy
4:52 AM 15.1 °F 2.5 °F 9.0 °F 77% 30.01 in 10.0 mi WNW 10.4 mph 17.3 mph N/A   Overcast
5:52 AM 12.9 °F 1.6 °F 8.1 °F 81% 30.04 in 10.0 mi WNW 8.1 mph - N/A   Overcast
6:52 AM 12.0 °F -1.3 °F 6.1 °F 77% 30.07 in 10.0 mi WNW 10.4 mph - N/A   Clear
7:52 AM 12.9 °F 1.6 °F 6.1 °F 74% 30.08 in 10.0 mi WNW 8.1 mph - N/A   Clear
8:52 AM 14.0 °F 2.9 °F 6.1 °F 71% 30.10 in 10.0 mi West 8.1 mph 16.1 mph N/A   Clear
9:52 AM 17.1 °F 8.7 °F 7.0 °F 65% 30.09 in 10.0 mi WNW 5.8 mph - N/A   Clear
10:52 AM 18.0 °F 7.7 °F 7.0 °F 62% 30.10 in 10.0 mi West 8.1 mph - N/A   Clear
11:52 AM 16.0 °F 7.4 °F 6.1 °F 65% 30.09 in 10.0 mi Variable 5.8 mph - N/A   Clear
12:23 PM 17.6 °F 10.7 °F 6.8 °F 63% 30.02 in 10.0 mi Variable 4.6 mph - N/A   Mostly Cloudy
12:52 PM 17.1 °F 7.6 °F 7.0 °F 65% 30.08 in 10.0 mi West 6.9 mph - N/A   Mostly Cloudy
1:52 PM 17.1 °F 8.7 °F 8.1 °F 68% 30.07 in 10.0 mi SW 5.8 mph - N/A   Overcast
2:52 PM 16.0 °F 1.7 °F 8.1 °F 71% 30.06 in 10.0 mi SSW 13.8 mph - N/A   Mostly Cloudy
3:50 PM 15.8 °F 2.1 °F 6.8 °F 68% 29.99 in 10.0 mi SSW 12.7 mph - N/A   Scattered Clouds
3:52 PM 15.1 °F 1.1 °F 7.0 °F 70% 30.06 in 10.0 mi SSW 12.7 mph - N/A   Partly Cloudy
4:52 PM 12.9 °F 0.7 °F 6.1 °F 74% 30.06 in 10.0 mi SW 9.2 mph 17.3 mph N/A   Clear
5:52 PM 12.0 °F 2.7 °F 5.0 °F 73% 30.06 in 10.0 mi SW 5.8 mph - N/A   Clear
6:52 PM 10.9 °F -0.8 °F 6.1 °F 81% 30.06 in 10.0 mi SW 8.1 mph - N/A   Clear
7:52 PM 12.0 °F -2.7 °F 6.1 °F 77% 29.99 in 10.0 mi SSW 12.7 mph - N/A   Clear
8:52 PM 12.9 °F -0.2 °F 7.0 °F 77% 29.97 in 10.0 mi SSW 10.4 mph - N/A   Clear
9:52 PM 15.1 °F 1.1 °F 9.0 °F 77% 29.92 in 10.0 mi SSW 12.7 mph - N/A   Mostly Cloudy
10:52 PM 16.0 °F 0.6 °F 10.0 °F 77% 29.89 in 10.0 mi SSW 16.1 mph - N/A   Overcast
11:52 PM 18.0 °F 2.2 °F 10.9 °F 74% 29.85 in 10.0 mi South 18.4 mph 26.5 mph N/A   Overcast